This demonstration page uses our WeatherBlox Daily Observations layout. Learn more.

Left ArrowRight Arrow

36.17497, -115.13722

Hourly Observations for March 10, 2016

Temp ( °F °C ) Dew Point ( °F °C ) Humidity (%) Winds ( mph kmh ) Pressure ( in mb ) Visibility ( mi km ) Precip ( " mm )
12:53 am 00:53 Clear 61 16.1 24 -4.4 24 24 Calm 30.09 1019 10 16.0934 0 0
1:53 am 01:53 Clear 57 13.9 25 -3.9 29 29 W 3 6 30.09 1019 10 16.0934 0 0
2:53 am 02:53 Clear 56 13.3 26 -3.3 32 32 NW 6 9 30.09 1019 10 16.0934 0 0
3:53 am 03:53 Clear 56 13.3 26 -3.3 32 32 N 3 6 30.09 1019 10 16.0934 0 0
4:53 am 04:53 Clear 54 12.2 27 -2.8 35 35 Calm 30.1 1019 10 16.0934 0 0
5:53 am 05:53 Clear 52 11.1 27 -2.8 38 38 WNW 5 7 30.1 1019 10 16.0934 0 0
6:53 am 06:53 Sunny 54 12.2 27 -2.8 35 35 NNW 3 6 30.12 1020 10 16.0934 0 0
7:53 am 07:53 Sunny 59 15 28 -2.2 31 31 Calm 30.12 1020 10 16.0934 0 0
8:53 am 08:53 Sunny 64 17.8 27 -2.8 25 25 Calm 30.13 1020 10 16.0934 0 0
9:53 am 09:53 Sunny 67 19.4 27 -2.8 22 22 SSE 3 6 30.12 1020 10 16.0934 0 0
10:53 am 10:53 Sunny 70 21.1 25 -3.9 18 18 ESE 6 9 30.09 1019 10 16.0934 0 0
11:53 am 11:53 Sunny 73 22.8 23 -5 15 15 ESE 5 7 30.07 1018 10 16.0934 0 0
12:53 pm 12:53 Sunny 75 23.9 24 -4.4 15 15 VRB 5 7 30.03 1017 10 16.0934 0 0
1:53 pm 13:53 Sunny 77 25 24 -4.4 14 14 SE 10 17 30.01 1016 10 16.0934 0 0
2:53 pm 14:53 Sunny 78 25.6 24 -4.4 13 13 ESE 9 15 29.98 1015 10 16.0934 0 0
3:53 pm 15:53 Sunny 79 26.1 23 -5 12 12 ESE 10 17 29.94 1014 10 16.0934 0 0
4:53 pm 16:53 Sunny 78 25.6 23 -5 13 13 SE 12 19 29.94 1014 10 16.0934 0 0
5:53 pm 17:53 Clear 75 23.9 23 -5 14 14 SE 7 11 29.95 1014 10 16.0934 0 0
6:53 pm 18:53 Clear 74 23.3 24 -4.4 15 15 S 5 7 29.96 1015 10 16.0934 0 0
7:53 pm 19:53 Clear 72 22.2 24 -4.4 17 17 S 6 9 29.96 1015 10 16.0934 0 0
8:53 pm 20:53 Clear 71 21.7 21 -6.1 15 15 S 8 13 29.96 1015 10 16.0934 0 0
9:53 pm 21:53 Clear 68 20 19 -7.2 15 15 SSW 8 13 29.97 1015 10 16.0934 0 0
10:53 pm 22:53 Clear 69 20.6 19 -7.2 15 15 SSW 12 19 29.95 1014 10 16.0934 0 0
11:53 pm 23:53 Clear 66 18.9 20 -6.7 17 17 S 7 11 29.95 1014 10 16.0934 0 0

Powered by AerisWeather